QPF
0.01 0.01 0.01 0.01 0.01 0.01 0.02 0.01 0.01 0.00 0.00 0.00 0.00 0.00 0.00 0.00 0.00 0.00 0.00 0.00 0.00 0.00 0.00 0.01 0.01 0.02 0.02 0.03 0.03 0.02 0.03 0.04 0.05 0.06 0.06 0.05 0.04 0.04 0.04 0.04 0.03 0.02 0.02 0.02
0.01 0.00 0.01 0.01 0.01 0.01 0.01 0.01 0.01 0.00 0.00 0.00 0.00 0.00 0.00 0.00 0.00 0.00 0.00 0.00 0.00 0.00 0.00 0.01 0.01 0.01 0.02 0.03 0.03 0.02 0.02 0.04 0.06 0.07 0.08 0.08 0.06 0.04 0.04 0.04 0.03 0.02 0.02 0.02
0.01 0.00 0.01 0.01 0.01 0.01 0.01 0.01 0.01 0.01 0.01 0.00 0.00 0.00 0.00 0.00 0.00 0.00 0.01 0.01 0.01 0.00 0.00 0.00 0.01 0.01 0.02 0.03 0.04 0.03 0.02 0.02 0.04 0.06 0.09 0.11 0.09 0.06 0.05 0.04 0.04 0.03 0.03 0.03
0.02 0.01 0.01 0.01 0.00 0.00 0.01 0.01 0.01 0.01 0.01 0.00 0.00 0.00 0.01 0.01 0.01 0.01 0.01 0.01 0.01 0.01 0.00 0.00 0.01 0.01 0.02 0.03 0.04 0.04 0.03 0.03 0.04 0.05 0.07 0.09 0.10 0.09 0.07 0.06 0.05 0.05 0.03 0.03
0.02 0.02 0.01 0.00 0.00 0.01 0.02 0.02 0.02 0.02 0.01 0.00 0.00 0.00 0.00 0.01 0.01 0.01 0.01 0.01 0.01 0.01 0.01 0.01 0.01 0.02 0.02 0.04 0.04 0.04 0.04 0.03 0.03 0.04 0.05 0.07 0.09 0.08 0.07 0.07 0.06 0.06 0.05 0.04
0.05 0.04 0.02 0.02 0.01 0.01 0.02 0.03 0.02 0.02 0.02 0.01 0.01 0.01 0.01 0.01 0.01 0.01 0.01 0.01 0.01 0.01 0.01 0.01 0.02 0.02 0.03 0.04 0.04 0.04 0.03 0.03 0.03 0.04 0.05 0.07 0.07 0.07 0.07 0.06 0.06 0.06 0.06 0.05
0.04 0.03 0.02 0.02 0.00 0.01 0.03 0.04 0.02 0.02 0.02 0.02 0.03 0.02 0.02 0.01 0.01 0.01 0.01 0.01 0.01 0.01 0.01 0.01 0.02 0.02 0.03 0.04 0.05 0.04 0.03 0.03 0.03 0.03 0.05 0.06 0.06 0.06 0.06 0.06 0.05 0.06 0.06 0.05
0.03 0.04 0.03 0.02 0.02 0.03 0.04 0.02 0.02 0.02 0.03 0.03 0.02 0.02 0.01 0.02 0.02 0.01 0.01 0.01 0.01 0.01 0.02 0.02 0.02 0.02 0.03 0.04 0.04 0.05 0.04 0.04 0.03 0.03 0.03 0.04 0.05 0.05 0.05 0.05 0.05 0.06 0.06 0.05
0.05 0.05 0.04 0.03 0.03 0.03 0.03 0.02 0.02 0.02 0.02 0.01 0.02 0.02 0.02 0.02 0.01 0.01 0.01 0.01 0.01 0.01 0.02 0.02 0.02 0.02 0.02 0.03 0.03 0.04 0.05 0.05 0.04 0.04 0.03 0.04 0.04 0.04 0.04 0.04 0.04 0.04 0.05 0.04
0.03 0.03 0.02 0.02 0.02 0.02 0.02 0.02 0.02 0.02 0.02 0.01 0.01 0.01 0.01 0.01 0.01 0.01 0.01 0.01 0.01 0.01 0.02 0.03 0.02 0.02 0.03 0.03 0.03 0.03 0.04 0.04 0.04 0.04 0.03 0.04 0.03 0.03 0.03 0.03 0.03 0.03 0.03 0.03
0.03 0.02 0.02 0.02 0.02 0.02 0.01 0.02 0.02 0.02 0.02 0.02 0.01 0.01 0.01 0.01 0.01 0.01 0.01 0.01 0.01 0.01 0.02 0.04 0.03 0.03 0.03 0.04 0.04 0.03 0.03 0.03 0.04 0.04 0.03 0.03 0.03 0.03 0.03 0.03 0.03 0.02 0.02 0.01
0.04 0.03 0.03 0.03 0.03 0.02 0.02 0.02 0.02 0.02 0.03 0.03 0.03 0.02 0.02 0.02 0.01 0.01 0.01 0.01 0.01 0.01 0.01 0.03 0.03 0.03 0.02 0.03 0.03 0.03 0.02 0.02 0.02 0.03 0.02 0.02 0.02 0.02 0.02 0.02 0.02 0.01 0.01 0.01
0.05 0.04 0.03 0.03 0.02 0.02 0.02 0.02 0.02 0.03 0.03 0.03 0.03 0.03 0.03 0.03 0.03 0.02 0.02 0.02 0.02 0.01 0.01 0.02 0.02 0.02 0.02 0.02 0.02 0.02 0.02 0.02 0.02 0.02 0.02 0.02 0.01 0.01 0.01 0.01 0.01 0.01 0.01 0.01
0.03 0.03 0.02 0.02 0.02 0.02 0.02 0.03 0.03 0.03 0.04 0.04 0.04 0.04 0.04 0.04 0.03 0.03 0.03 0.03 0.02 0.02 0.02 0.02 0.02 0.02 0.02 0.02 0.02 0.02 0.02 0.02 0.02 0.01 0.01 0.01 0.01 0.01 0.00 0.00 0.00 0.00 0.00 0.00
0.03 0.03 0.03 0.03 0.02 0.02 0.02 0.02 0.02 0.02 0.03 0.02 0.03 0.03 0.03 0.03 0.03 0.03 0.03 0.02 0.02 0.01 0.02 0.02 0.02 0.02 0.02 0.02 0.01 0.01 0.01 0.01 0.01 0.01 0.01 0.01 0.01 0.00 0.00 0.00 0.00 0.00 0.00 0.00
0.02 0.02 0.02 0.02 0.02 0.02 0.02 0.02 0.02 0.02 0.03 0.02 0.02 0.02 0.02 0.02 0.02 0.02 0.02 0.01 0.01 0.01 0.02 0.02 0.02 0.02 0.02 0.02 0.01 0.01 0.01 0.01 0.01 0.01 0.01 0.01 0.01 0.01 0.00 0.01 0.01 0.00 0.00 0.00
0.03 0.02 0.02 0.03 0.03 0.03 0.03 0.03 0.03 0.03 0.02 0.02 0.02 0.02 0.02 0.02 0.01 0.01 0.01 0.01 0.01 0.01 0.02 0.02 0.02 0.01 0.01 0.01 0.01 0.01 0.01 0.01 0.01 0.01 0.01 0.01 0.01 0.01 0.01 0.01 0.01 0.01 0.01 0.01
0.04 0.03 0.03 0.04 0.04 0.04 0.04 0.03 0.03 0.03 0.02 0.03 0.03 0.03 0.03 0.03 0.03 0.02 0.02 0.02 0.02 0.02 0.02 0.02 0.02 0.01 0.01 0.01 0.01 0.01 0.01 0.01 0.01 0.01 0.01 0.00 0.01 0.01 0.01 0.01 0.01 0.01 0.01 0.01
0.03 0.04 0.04 0.05 0.05 0.05 0.05 0.04 0.04 0.04 0.04 0.03 0.03 0.04 0.04 0.04 0.04 0.03 0.02 0.02 0.01 0.01 0.01 0.01 0.01 0.01 0.01 0.01 0.01 0.01 0.01 0.01 0.00 0.00 0.00 0.00 0.00 0.00 0.00 0.00 0.01 0.01 0.01 0.01
0.04 0.04 0.04 0.04 0.04 0.04 0.04 0.04 0.04 0.04 0.04 0.04 0.04 0.04 0.04 0.04 0.03 0.02 0.01 0.01 0.01 0.01 0.01 0.01 0.00 0.01 0.00 0.00 0.00 0.00 0.00 0.00 0.00 0.00 0.00 0.00 0.00 0.00 0.00 0.00 0.00 0.01 0.01 0.01
0.05 0.05 0.04 0.04 0.04 0.04 0.04 0.03 0.03 0.03 0.03 0.03 0.03 0.03 0.02 0.03 0.02 0.01 0.01 0.01 0.01 0.00 0.00 0.00 0.00 0.00 0.00 0.00 0.00 0.00 0.00 0.00 0.00 0.00 0.00 0.00 0.00 0.00 0.00 0.00 0.00 0.00 0.00 0.01
0.05 0.05 0.04 0.04 0.03 0.03 0.03 0.03 0.03 0.03 0.03 0.03 0.03 0.02 0.02 0.01 0.01 0.01 0.00 0.00 0.00 0.00 0.00 0.00 0.00 0.00 0.00 0.00 0.00 0.00 0.00 0.00 0.00 0.00 0.00 0.01 0.01 0.00 0.00 0.00 0.00 0.00 0.00 0.00
0.04 0.04 0.04 0.04 0.03 0.03 0.02 0.02 0.02 0.02 0.02 0.02 0.02 0.02 0.01 0.01 0.00 0.00 0.00 0.00 0.00 0.00 0.00 0.00 0.00 0.00 0.00 0.00 0.00 0.01 0.00 0.00 0.00 0.00 0.00 0.01 0.00 0.00 0.00 0.00 0.00 0.01 0.01 0.01
0.03 0.03 0.03 0.03 0.02 0.02 0.02 0.02 0.02 0.02 0.02 0.01 0.01 0.01 0.01 0.01 0.01 0.00 0.00 0.00 0.00 0.00 0.00 0.00 0.00 0.00 0.00 0.00 0.00 0.00 0.01 0.00 0.00 0.00 0.01 0.01 0.01 0.01 0.01 0.01 0.01 0.01 0.01 0.01
0.01 0.02 0.02 0.02 0.02 0.02 0.02 0.02 0.01 0.01 0.01 0.01 0.01 0.01 0.01 0.01 0.01 0.01 0.01 0.00 0.00 0.00 0.00 0.00 0.00 0.00 0.00 0.00 0.00 0.00 0.01 0.01 0.01 0.01 0.01 0.01 0.01 0.01 0.01 0.01 0.01 0.01 0.01 0.01
0.00 0.01 0.01 0.01 0.01 0.02 0.02 0.01 0.01 0.01 0.01 0.01 0.01 0.01 0.01 0.01 0.01 0.00 0.00 0.00 0.00 0.00 0.00 0.00 0.00 0.00 0.00 0.00 0.00 0.00 0.00 0.01 0.01 0.01 0.01 0.01 0.01 0.01 0.01 0.01 0.01 0.01 0.01 0.01
0.00 0.00 0.00 0.01 0.01 0.01 0.01 0.01 0.01 0.02 0.01 0.01 0.01 0.01 0.01 0.00 0.00 0.00 0.00 0.00 0.00 0.00 0.00 0.00 0.00 0.00 0.00 0.00 0.00 0.00 0.01 0.01 0.01 0.01 0.01 0.01 0.01 0.01 0.01 0.01 0.01 0.01 0.01 0.01
MSLP
1020.33 1020.02 1019.76 1019.50 1019.22 1018.88 1018.43 1017.87 1017.18 1016.40 1015.56 1014.73 1013.99 1013.40 1013.00 1012.84 1012.90 1013.15 1013.55 1014.01 1014.48 1014.87 1015.14 1015.27 1015.25 1015.10 1014.86 1014.57 1014.28 1014.02 1013.84 1013.73 1013.71 1013.78 1013.92 1014.11 1014.33 1014.56 1014.80 1015.02 1015.22 1015.40 1015.56 1015.70
1020.52 1020.09 1019.68 1019.27 1018.85 1018.38 1017.85 1017.23 1016.54 1015.78 1015.01 1014.25 1013.58 1013.04 1012.68 1012.52 1012.55 1012.77 1013.11 1013.54 1013.98 1014.38 1014.69 1014.88 1014.94 1014.88 1014.71 1014.48 1014.21 1013.96 1013.74 1013.58 1013.51 1013.51 1013.59 1013.74 1013.95 1014.19 1014.44 1014.70 1014.95 1015.17 1015.38 1015.58
1020.68 1020.14 1019.61 1019.09 1018.55 1018.00 1017.42 1016.79 1016.13 1015.43 1014.73 1014.06 1013.45 1012.96 1012.61 1012.43 1012.41 1012.54 1012.81 1013.15 1013.54 1013.91 1014.23 1014.46 1014.58 1014.58 1014.49 1014.31 1014.07 1013.82 1013.58 1013.39 1013.25 1013.20 1013.23 1013.35 1013.53 1013.77 1014.04 1014.33 1014.62 1014.90 1015.16 1015.40
1020.85 1020.22 1019.60 1018.97 1018.36 1017.75 1017.15 1016.54 1015.92 1015.30 1014.69 1014.11 1013.58 1013.14 1012.80 1012.58 1012.49 1012.54 1012.69 1012.94 1013.24 1013.56 1013.85 1014.08 1014.23 1014.27 1014.22 1014.08 1013.87 1013.62 1013.37 1013.14 1012.96 1012.86 1012.85 1012.93 1013.10 1013.33 1013.63 1013.95 1014.28 1014.61 1014.92 1015.20
1021.11 1020.39 1019.66 1018.95 1018.26 1017.61 1016.99 1016.40 1015.84 1015.30 1014.79 1014.31 1013.87 1013.48 1013.16 1012.92 1012.78 1012.74 1012.80 1012.94 1013.14 1013.38 1013.61 1013.81 1013.95 1014.00 1013.97 1013.84 1013.64 1013.39 1013.11 1012.85 1012.64 1012.50 1012.46 1012.52 1012.67 1012.92 1013.23 1013.58 1013.95 1014.32 1014.67 1014.99
1021.48 1020.66 1019.83 1019.01 1018.24 1017.52 1016.88 1016.29 1015.78 1015.32 1014.90 1014.53 1014.18 1013.87 1013.59 1013.37 1013.20 1013.11 1013.09 1013.14 1013.25 1013.40 1013.56 1013.70 1013.80 1013.83 1013.78 1013.65 1013.43 1013.17 1012.87 1012.59 1012.35 1012.18 1012.11 1012.15 1012.30 1012.55 1012.88 1013.25 1013.65 1014.05 1014.44 1014.80
1021.98 1021.05 1020.09 1019.15 1018.27 1017.47 1016.77 1016.17 1015.68 1015.28 1014.94 1014.67 1014.42 1014.21 1014.01 1013.83 1013.68 1013.57 1013.51 1013.50 1013.54 1013.61 1013.70 1013.77 1013.82 1013.80 1013.71 1013.55 1013.30 1013.01 1012.70 1012.39 1012.13 1011.94 1011.86 1011.89 1012.04 1012.28 1012.62 1013.01 1013.42 1013.85 1014.25 1014.64
1022.60 1021.54 1020.45 1019.37 1018.36 1017.44 1016.66 1016.01 1015.51 1015.14 1014.87 1014.69 1014.55 1014.44 1014.34 1014.24 1014.15 1014.07 1014.01 1013.98 1013.97 1013.99 1014.01 1014.02 1014.00 1013.92 1013.78 1013.57 1013.29 1012.97 1012.64 1012.31 1012.04 1011.84 1011.75 1011.77 1011.91 1012.15 1012.48 1012.87 1013.29 1013.72 1014.13 1014.53
1023.31 1022.14 1020.91 1019.69 1018.53 1017.48 1016.59 1015.87 1015.33 1014.96 1014.74 1014.62 1014.57 1014.57 1014.58 1014.58 1014.58 1014.57 1014.54 1014.52 1014.50 1014.48 1014.45 1014.40 1014.32 1014.18 1013.99 1013.73 1013.42 1013.08 1012.73 1012.39 1012.11 1011.91 1011.82 1011.84 1011.97 1012.20 1012.51 1012.88 1013.28 1013.69 1014.10 1014.49
1024.08 1022.82 1021.48 1020.13 1018.83 1017.66 1016.65 1015.84 1015.25 1014.85 1014.63 1014.56 1014.59 1014.67 1014.79 1014.89 1014.98 1015.04 1015.08 1015.09 1015.07 1015.04 1014.97 1014.88 1014.74 1014.56 1014.32 1014.03 1013.69 1013.34 1012.98 1012.65 1012.38 1012.19 1012.09 1012.10 1012.22 1012.43 1012.72 1013.05 1013.42 1013.80 1014.18 1014.55
1024.89 1023.59 1022.17 1020.73 1019.33 1018.04 1016.93 1016.03 1015.37 1014.93 1014.70 1014.64 1014.70 1014.85 1015.04 1015.22 1015.39 1015.52 1015.61 1015.65 1015.65 1015.61 1015.52 1015.40 1015.22 1015.00 1014.73 1014.42 1014.08 1013.73 1013.39 1013.08 1012.83 1012.65 1012.57 1012.58 1012.68 1012.86 1013.11 1013.40 1013.71 1014.04 1014.38 1014.72
1025.71 1024.41 1022.99 1021.50 1020.05 1018.69 1017.51 1016.54 1015.80 1015.31 1015.04 1014.96 1015.03 1015.20 1015.41 1015.64 1015.85 1016.02 1016.13 1016.20 1016.20 1016.15 1016.05 1015.90 1015.70 1015.47 1015.19 1014.88 1014.55 1014.23 1013.92 1013.65 1013.43 1013.28 1013.21 1013.23 1013.32 1013.47 1013.67 1013.90 1014.16 1014.42 1014.70 1014.99
1026.51 1025.27 1023.89 1022.43 1020.97 1019.60 1018.38 1017.36 1016.58 1016.03 1015.71 1015.58 1015.61 1015.75 1015.95 1016.17 1016.37 1016.54 1016.65 1016.71 1016.70 1016.64 1016.53 1016.36 1016.16 1015.92 1015.65 1015.37 1015.08 1014.79 1014.53 1014.31 1014.14 1014.03 1013.98 1014.00 1014.08 1014.20 1014.35 1014.53 1014.72 1014.92 1015.13 1015.36
1027.26 1026.13 1024.83 1023.44 1022.04 1020.69 1019.48 1018.45 1017.63 1017.03 1016.65 1016.45 1016.41 1016.49 1016.62 1016.79 1016.94 1017.07 1017.15 1017.17 1017.14 1017.06 1016.94 1016.77 1016.57 1016.35 1016.11 1015.87 1015.63 1015.40 1015.20 1015.03 1014.91 1014.84 1014.82 1014.84 1014.90 1014.99 1015.10 1015.23 1015.36 1015.49 1015.65 1015.81
1027.92 1026.91 1025.73 1024.45 1023.13 1021.86 1020.69 1019.66 1018.83 1018.19 1017.74 1017.47 1017.34 1017.32 1017.37 1017.44 1017.52 1017.58 1017.60 1017.59 1017.53 1017.43 1017.29 1017.13 1016.96 1016.76 1016.57 1016.37 1016.19 1016.02 1015.88 1015.77 1015.70 1015.66 1015.65 1015.68 1015.73 1015.79 1015.86 1015.93 1016.01 1016.09 1016.18 1016.29
1028.46 1027.57 1026.51 1025.35 1024.14 1022.95 1021.84 1020.85 1020.01 1019.35 1018.84 1018.49 1018.27 1018.15 1018.09 1018.07 1018.06 1018.05 1018.01 1017.95 1017.86 1017.75 1017.62 1017.48 1017.33 1017.18 1017.03 1016.89 1016.77 1016.66 1016.57 1016.50 1016.46 1016.44 1016.44 1016.46 1016.49 1016.52 1016.56 1016.59 1016.62 1016.65 1016.70 1016.76
1028.84 1028.05 1027.10 1026.05 1024.95 1023.85 1022.81 1021.87 1021.05 1020.36 1019.81 1019.40 1019.09 1018.88 1018.73 1018.62 1018.53 1018.45 1018.36 1018.27 1018.17 1018.06 1017.95 1017.84 1017.73 1017.63 1017.53 1017.44 1017.36 1017.29 1017.24 1017.20 1017.17 1017.15 1017.14 1017.14 1017.15 1017.15 1017.15 1017.14 1017.13 1017.13 1017.13 1017.16
1029.04 1028.32 1027.46 1026.51 1025.51 1024.50 1023.53 1022.63 1021.83 1021.14 1020.56 1020.10 1019.73 1019.45 1019.23 1019.06 1018.92 1018.80 1018.69 1018.59 1018.50 1018.41 1018.33 1018.26 1018.20 1018.14 1018.08 1018.03 1017.98 1017.93 1017.88 1017.84 1017.80 1017.77 1017.73 1017.70 1017.67 1017.63 1017.60 1017.55 1017.52 1017.48 1017.46 1017.46
1029.08 1028.40 1027.61 1026.73 1025.80 1024.87 1023.97 1023.12 1022.35 1021.67 1021.09 1020.60 1020.21 1019.89 1019.63 1019.43 1019.27 1019.14 1019.04 1018.96 1018.90 1018.85 1018.81 1018.78 1018.75 1018.73 1018.69 1018.65 1018.61 1018.55 1018.49 1018.42 1018.35 1018.28 1018.20 1018.12 1018.05 1017.97 1017.90 1017.83 1017.76 1017.70 1017.66 1017.65
1029.00 1028.34 1027.59 1026.78 1025.92 1025.05 1024.21 1023.41 1022.68 1022.03 1021.46 1020.98 1020.58 1020.26 1020.01 1019.81 1019.66 1019.56 1019.48 1019.44 1019.41 1019.41 1019.40 1019.40 1019.40 1019.38 1019.35 1019.30 1019.24 1019.15 1019.05 1018.94 1018.81 1018.69 1018.56 1018.43 1018.31 1018.19 1018.08 1017.98 1017.89 1017.81 1017.76 1017.72
1028.86 1028.22 1027.51 1026.75 1025.95 1025.15 1024.37 1023.63 1022.94 1022.33 1021.79 1021.33 1020.96 1020.66 1020.44 1020.27 1020.16 1020.09 1020.05 1020.05 1020.06 1020.08 1020.10 1020.11 1020.10 1020.08 1020.02 1019.94 1019.83 1019.70 1019.54 1019.37 1019.19 1019.01 1018.83 1018.65 1018.49 1018.33 1018.19 1018.06 1017.95 1017.85 1017.78 1017.73
1028.71 1028.11 1027.44 1026.73 1026.00 1025.27 1024.55 1023.87 1023.24 1022.67 1022.18 1021.77 1021.43 1021.18 1020.99 1020.86 1020.79 1020.76 1020.77 1020.79 1020.82 1020.85 1020.87 1020.86 1020.83 1020.77 1020.67 1020.54 1020.37 1020.17 1019.96 1019.73 1019.50 1019.27 1019.04 1018.83 1018.63 1018.45 1018.28 1018.13 1018.00 1017.88 1017.78 1017.70
1028.62 1028.06 1027.45 1026.81 1026.14 1025.47 1024.82 1024.20 1023.63 1023.13 1022.69 1022.33 1022.04 1021.83 1021.69 1021.60 1021.56 1021.56 1021.59 1021.62 1021.65 1021.66 1021.65 1021.61 1021.53 1021.41 1021.25 1021.05 1020.83 1020.57 1020.31 1020.03 1019.76 1019.49 1019.25 1019.01 1018.79 1018.59 1018.41 1018.23 1018.07 1017.93 1017.80 1017.69
1028.61 1028.10 1027.56 1026.98 1026.39 1025.79 1025.20 1024.65 1024.14 1023.69 1023.30 1022.99 1022.75 1022.58 1022.48 1022.42 1022.41 1022.42 1022.45 1022.47 1022.47 1022.45 1022.39 1022.29 1022.15 1021.96 1021.74 1021.48 1021.19 1020.89 1020.59 1020.29 1019.99 1019.72 1019.46 1019.22 1018.99 1018.78 1018.58 1018.39 1018.21 1018.03 1017.86 1017.70
1028.69 1028.24 1027.76 1027.24 1026.71 1026.17 1025.65 1025.15 1024.70 1024.30 1023.96 1023.69 1023.49 1023.35 1023.27 1023.24 1023.23 1023.24 1023.25 1023.25 1023.21 1023.14 1023.02 1022.86 1022.65 1022.40 1022.12 1021.81 1021.48 1021.15 1020.83 1020.52 1020.22 1019.95 1019.70 1019.46 1019.24 1019.03 1018.81 1018.60 1018.38 1018.16 1017.95 1017.74
1028.83 1028.44 1028.00 1027.54 1027.05 1026.57 1026.09 1025.63 1025.21 1024.85 1024.55 1024.31 1024.13 1024.02 1023.95 1023.92 1023.91 1023.91 1023.90 1023.86 1023.79 1023.67 1023.50 1023.28 1023.02 1022.72 1022.40 1022.05 1021.71 1021.37 1021.04 1020.73 1020.45 1020.20 1019.95 1019.73 1019.51 1019.28 1019.05 1018.81 1018.56 1018.29 1018.02 1017.76
1029.02 1028.65 1028.24 1027.80 1027.34 1026.88 1026.42 1025.99 1025.59 1025.25 1024.96 1024.74 1024.58 1024.47 1024.41 1024.38 1024.37 1024.35 1024.32 1024.25 1024.15 1024.00 1023.80 1023.55 1023.26 1022.93 1022.59 1022.24 1021.89 1021.55 1021.23 1020.94 1020.67 1020.42 1020.19 1019.96 1019.73 1019.49 1019.22 1018.95 1018.65 1018.33 1018.01 1017.69
Thickness
5446 5451 5452 5456 5461 5460 5458 5461 5463 5477 5480 5494 5496 5495 5495 5494 5493 5492 5492 5492 5492 5492 5491 5490 5488 5488 5488 5487 5485 5484 5481 5479 5478 5476 5475 5474 5474 5474 5475 5476 5476 5477 5477 5478
5431 5442 5441 5445 5454 5456 5458 5459 5459 5466 5475 5486 5486 5486 5486 5485 5485 5486 5487 5487 5487 5487 5485 5484 5483 5482 5482 5480 5479 5477 5475 5473 5471 5470 5469 5468 5467 5467 5467 5468 5468 5469 5470 5470
5417 5427 5431 5437 5453 5454 5454 5457 5458 5462 5474 5474 5474 5477 5478 5479 5478 5479 5481 5481 5481 5480 5479 5478 5477 5477 5476 5474 5472 5470 5468 5466 5464 5463 5462 5461 5460 5460 5459 5460 5460 5461 5462 5462
5402 5409 5413 5448 5452 5452 5451 5454 5453 5456 5460 5461 5464 5469 5470 5471 5470 5472 5474 5474 5474 5473 5472 5471 5471 5470 5469 5467 5465 5463 5461 5458 5457 5456 5455 5454 5453 5452 5452 5452 5453 5453 5454 5454
5391 5395 5414 5433 5436 5434 5437 5442 5442 5443 5447 5449 5452 5457 5463 5465 5463 5464 5466 5467 5467 5466 5465 5463 5463 5462 5460 5458 5456 5455 5453 5451 5450 5448 5447 5446 5445 5445 5444 5445 5445 5445 5445 5446
5382 5391 5406 5421 5424 5427 5430 5432 5434 5433 5436 5437 5439 5443 5455 5456 5454 5455 5457 5457 5457 5456 5456 5455 5454 5453 5452 5449 5448 5446 5445 5444 5442 5441 5440 5438 5438 5437 5437 5437 5436 5436 5436 5436
5374 5380 5396 5404 5409 5416 5415 5421 5425 5426 5428 5427 5429 5436 5440 5442 5444 5445 5446 5447 5447 5446 5445 5445 5444 5443 5442 5440 5438 5437 5437 5435 5434 5433 5432 5430 5429 5429 5428 5428 5427 5426 5427 5427
5368 5370 5386 5395 5394 5397 5402 5408 5412 5415 5418 5418 5421 5424 5428 5431 5433 5433 5434 5435 5435 5435 5434 5433 5433 5433 5431 5430 5429 5428 5427 5426 5424 5423 5422 5421 5419 5419 5418 5417 5416 5415 5416 5416
5368 5378 5384 5383 5384 5388 5391 5394 5399 5403 5407 5410 5411 5414 5417 5418 5419 5420 5420 5421 5422 5422 5422 5421 5421 5421 5420 5419 5419 5418 5417 5415 5413 5412 5411 5410 5409 5408 5407 5406 5405 5405 5405 5405
5356 5367 5370 5371 5374 5377 5380 5384 5389 5393 5396 5399 5401 5404 5404 5405 5406 5407 5407 5408 5409 5409 5409 5408 5408 5409 5408 5408 5408 5408 5406 5404 5403 5401 5400 5399 5397 5397 5396 5395 5395 5395 5395 5395
5346 5356 5359 5365 5365 5368 5372 5375 5378 5382 5385 5388 5390 5392 5392 5392 5393 5394 5395 5395 5396 5397 5397 5396 5396 5396 5396 5396 5397 5396 5394 5392 5391 5390 5389 5387 5386 5385 5385 5386 5386 5385 5385 5385
5343 5348 5347 5355 5358 5359 5361 5364 5367 5370 5374 5377 5379 5380 5381 5381 5382 5382 5383 5384 5384 5385 5385 5384 5384 5383 5383 5384 5384 5384 5383 5381 5379 5378 5376 5375 5375 5374 5374 5375 5376 5376 5376 5376
5337 5339 5341 5347 5350 5351 5353 5356 5358 5361 5364 5366 5368 5369 5370 5370 5370 5371 5371 5371 5372 5372 5371 5371 5370 5370 5370 5371 5372 5372 5370 5369 5367 5366 5365 5364 5364 5363 5363 5364 5364 5364 5365 5365
5325 5328 5332 5336 5339 5342 5344 5347 5349 5351 5354 5356 5357 5358 5359 5358 5358 5358 5358 5359 5359 5359 5358 5358 5358 5357 5358 5359 5359 5359 5358 5357 5356 5354 5353 5352 5351 5350 5350 5351 5352 5351 5352 5353
5316 5318 5322 5326 5329 5332 5334 5337 5339 5341 5343 5344 5345 5346 5346 5346 5346 5346 5346 5347 5347 5346 5346 5345 5346 5345 5346 5346 5347 5346 5346 5344 5344 5342 5341 5341 5340 5339 5339 5339 5339 5339 5340 5341
5306 5309 5313 5316 5319 5321 5323 5326 5329 5330 5332 5333 5333 5333 5333 5333 5333 5333 5333 5334 5334 5333 5333 5333 5333 5333 5333 5334 5334 5333 5333 5333 5332 5331 5330 5329 5328 5328 5327 5327 5327 5327 5327 5327
5296 5300 5303 5305 5307 5309 5312 5314 5317 5318 5320 5321 5321 5321 5321 5321 5321 5320 5320 5320 5320 5320 5320 5320 5320 5321 5321 5321 5320 5320 5319 5319 5320 5319 5318 5317 5317 5316 5315 5315 5314 5314 5314 5315
5288 5291 5293 5295 5296 5298 5300 5303 5304 5306 5307 5308 5309 5309 5309 5308 5307 5307 5307 5307 5307 5307 5307 5307 5308 5308 5308 5308 5308 5307 5307 5306 5306 5306 5306 5305 5305 5304 5303 5303 5302 5302 5302 5303
5279 5280 5282 5284 5286 5287 5289 5290 5292 5294 5295 5296 5296 5296 5295 5295 5294 5295 5295 5295 5295 5294 5295 5295 5296 5296 5296 5296 5296 5296 5295 5295 5294 5294 5294 5294 5294 5293 5292 5291 5290 5290 5290 5291
5268 5271 5272 5273 5276 5277 5278 5279 5280 5281 5282 5283 5283 5283 5282 5282 5281 5282 5282 5282 5282 5282 5283 5284 5284 5284 5284 5284 5285 5284 5284 5283 5283 5282 5282 5281 5281 5280 5280 5279 5279 5279 5279 5279
5256 5258 5260 5262 5263 5264 5265 5267 5268 5269 5270 5270 5271 5270 5269 5269 5269 5270 5270 5270 5270 5271 5272 5273 5272 5272 5273 5274 5274 5273 5272 5272 5271 5271 5270 5269 5269 5268 5268 5267 5267 5267 5267 5267
5245 5246 5247 5249 5250 5251 5252 5254 5255 5256 5257 5257 5257 5257 5257 5257 5257 5257 5257 5257 5258 5259 5260 5260 5260 5261 5262 5263 5262 5261 5261 5260 5260 5259 5258 5258 5257 5257 5256 5256 5255 5255 5255 5255
5235 5235 5236 5237 5238 5239 5240 5241 5242 5243 5243 5243 5244 5244 5244 5244 5244 5245 5245 5245 5246 5247 5248 5248 5249 5250 5251 5250 5250 5249 5249 5248 5248 5248 5247 5247 5247 5246 5245 5245 5244 5244 5244 5244
5225 5225 5225 5226 5227 5228 5228 5229 5230 5230 5230 5230 5231 5231 5231 5232 5232 5231 5232 5233 5234 5235 5235 5236 5237 5238 5239 5238 5237 5237 5236 5236 5236 5236 5236 5236 5236 5235 5235 5234 5234 5234 5234 5234
5215 5214 5215 5215 5216 5216 5217 5218 5218 5219 5219 5220 5220 5220 5220 5220 5219 5220 5220 5220 5222 5223 5223 5223 5225 5226 5225 5225 5225 5225 5225 5225 5226 5226 5225 5225 5225 5225 5225 5224 5225 5225 5226 5226
5205 5205 5205 5205 5205 5206 5207 5207 5208 5208 5209 5209 5209 5209 5209 5209 5209 5209 5209 5210 5210 5211 5211 5211 5212 5213 5213 5213 5214 5214 5215 5215 5215 5215 5215 5215 5215 5216 5216 5216 5217 5218 5218 5219
5197 5197 5197 5197 5198 5198 5197 5197 5197 5197 5198 5198 5198 5199 5199 5199 5199 5199 5199 5199 5200 5200 5201 5201 5202 5202 5203 5203 5204 5204 5205 5205 5206 5206 5206 5206 5207 5207 5208 5209 5210 5211 5212 5213